Regional Weather Roundup
Issued by NWS Charleston, WV

Home | Current Version | Previous Version | Graphics & Text | Print | Product List | Glossary On
Versions: 1 2 3 4 5 6 7 8 9 10 11 12 13 14 15 16 17 18 19 20 21 22 23 24 25 26 27
000
ASUS41 KRLX 170010
RWRRLX
West Virginia Regional Weather Roundup
National Weather Service Charleston WV
800 PM EDT WED AUG 16 2017

Note: "fair" indicates few or no clouds below 12,000 feet with no
significant weather and/or obstructions to visibility.

WVZ003-170100-
Northern Panhandle of West Virginia

CITY           SKY/WX    TMP DP  RH WIND       PRES   REMARKS
WHEELING       CLOUDY    77  64  64 E6        30.03R
$$

WVZ009-170100-
Northwest West Virginia

CITY           SKY/WX    TMP DP  RH WIND       PRES   REMARKS
PARKERSBURG    CLEAR     83  69  62 CALM      30.03R
$$

WVZ006-170100-
Western West Virginia

CITY           SKY/WX    TMP DP  RH WIND       PRES   REMARKS
HUNTINGTON     PTCLDY    81  72  74 S6        30.00R
$$

WVZ015-170100-
West Central West Virginia

CITY           SKY/WX    TMP DP  RH WIND       PRES   REMARKS
CHARLESTON     PTCLDY    80  72  76 CALM      30.01R
$$

WVZ022-031-170100-
North Central West Virginia

CITY           SKY/WX    TMP DP  RH WIND       PRES   REMARKS
CLARKSBURG     PTCLDY    78  68  71 NE3       30.04R
MORGANTOWN     CLEAR     79  68  69 CALM      30.05R
$$

WVZ025-035-042-045-170100-
Southern West Virginia

CITY           SKY/WX    TMP DP  RH WIND       PRES   REMARKS
BECKLEY        MOCLDY    76  66  71 SW7       30.11R
LOGAN          CLOUDY    75  68  78 CALM      30.06R
BLUEFIELD      CLEAR     73  66  78 W5        30.14R
LEWISBURG      CLEAR     78  66  66 CALM      30.10S
$$

WVZ047-170100-
Northern Mountains of West Virginia

CITY           SKY/WX    TMP DP  RH WIND       PRES   REMARKS
ELKINS         CLEAR     76  67  73 SW3       30.09R
$$

WVZ052-170100-
Eastern Panhandle of West Virginia

CITY           SKY/WX    TMP DP  RH WIND       PRES   REMARKS
MARTINSBURG    CLEAR     79  72  78 CALM      30.00R
PETERSBURG     CLEAR     82  71  70 NW3       30.03R
$$




USA.gov is the U.S. government's official web portal to all federal, state and local government web resources and services.